YO8RXT-3 Weather Reports


time (UTC)temp
F
wind
direction
speed
knots
gust
knots
rain 1hr
in
rain 24hr
in
rain mn
in
humidity
%
barometer
mb
20260831173502 81 150 7.8 0.0 0.00 0.00 0.00 32 1015.0
20260831170503 81 140 7.0 0.0 0.00 0.00 0.00 34 1015.0
20260831163502 82 150 7.8 0.0 0.00 0.00 0.00 32 1015.0
20260831160502 84 150 7.8 0.0 0.00 0.00 0.00 31 1015.0
20260831153502 86 160 7.8 0.0 0.00 0.00 0.00 29 1015.0
20260831150502 88 160 8.7 0.0 0.00 0.00 0.00 27 1015.0
20260831143502 88 170 7.8 0.0 0.00 0.00 0.00 27 1015.0
20260831140501 88 150 8.7 0.0 0.00 0.00 0.00 27 1015.0
20260831133502 90 140 8.7 0.0 0.00 0.00 0.00 27 1016.0
20260831130502 88 160 7.0 0.0 0.00 0.00 0.00 29 1016.0
20260831123502 90 190 5.2 0.0 0.00 0.00 0.00 27 1016.0
20260831120502 88 150 8.7 0.0 0.00 0.00 0.00 29 1016.0
20260831113502 88 180 7.0 0.0 0.00 0.00 0.00 29 1016.0
20260831110503 88 150 8.7 0.0 0.00 0.00 0.00 29 1017.0
20260831103502 88 150 7.8 0.0 0.00 0.00 0.00 31 1017.0
20260831100502 86 180 6.1 0.0 0.00 0.00 0.00 31 1017.0
20260831093502 86 160 7.8 0.0 0.00 0.00 0.00 33 1017.0
20260831090502 84 180 7.8 0.0 0.00 0.00 0.00 33 1018.0
20260831083502 82 160 7.0 0.0 0.00 0.00 0.00 35 1018.0
20260831080502 81 170 6.1 0.0 0.00 0.00 0.00 37 1018.0
20260831073502 79 130 6.1 0.0 0.00 0.00 0.00 42 1018.0
20260831070501 75 120 6.1 0.0 0.00 0.00 0.00 47 1018.0
20260831063502 73 120 7.0 0.0 0.00 0.00 0.00 47 1018.0
20260831060502 72 120 7.8 0.0 0.00 0.00 0.00 50 1018.0
20260831053502 70 100 7.8 0.0 0.00 0.00 0.00 53 1018.0
20260831050503 66 90 6.1 0.0 0.00 0.00 0.00 60 1018.0
20260831043502 64 90 6.1 0.0 0.00 0.00 0.00 64 1018.0
20260831040502 64 80 7.0 0.0 0.00 0.00 0.00 64 1018.0
20260831033502 66 80 5.2 0.0 0.00 0.00 0.00 56 1017.0
20260831030502 66 80 5.2 0.0 0.00 0.00 0.00 56 1017.0
20260831023503 66 80 4.3 0.0 0.00 0.00 0.00 56 1018.0
20260831020503 68 80 6.1 0.0 0.00 0.00 0.00 53 1018.0
20260831013501 68 80 5.2 0.0 0.00 0.00 0.00 53 1018.0
20260831010502 70 1.7 0.0 0.00 0.00 0.00 50 1018.0
20260831003502 70 160 4.3 0.0 0.00 0.00 0.00 50 1018.0
20260831000502 72 160 5.2 0.0 0.00 0.00 0.00 47 1018.0
20260830233502 73 160 5.2 0.0 0.00 0.00 0.00 44 1018.0
20260830230502 72 160 6.1 0.0 0.00 0.00 0.00 50 1018.0
20260830223502 72 150 5.2 0.0 0.00 0.00 0.00 50 1018.0
20260830220502 72 110 5.2 0.0 0.00 0.00 0.00 53 1018.0
20260830213502 70 90 7.0 0.0 0.00 0.00 0.00 57 1018.0
20260830210502 70 100 7.0 0.0 0.00 0.00 0.00 57 1018.0
20260830203502 70 80 6.1 0.0 0.00 0.00 0.00 57 1018.0
20260830200502 75 210 1.7 0.0 0.00 0.00 0.00 44 1017.0
20260830193501 75 0.9 0.0 0.00 0.00 0.00 44 1017.0
20260830190502 75 1.7 0.0 0.00 0.00 0.00 44 1017.0
20260830183502 77 200 2.6 0.0 0.00 0.00 0.00 42 1017.0
20260830180502 77 160 4.3 0.0 0.00 0.00 0.00 42 1017.0